Location: Monfort
(47.1967°N, 0.2115°W)
Time: 11:09:08
(UTC+00:00)

ATLAS 5 CENTAUR R/B - Pass Details

Date: 24 October 2020
Orbit: 531 x 1127 km, 63.4° (Epoch: 22 November)

Event Time Altitude Azimuth Distance (km) Brightness Sun altitude
Rises 19:44:42 0° 302° (WNW) 2,924 6.1 -29.1°
Reaches altitude 10° 19:48:14 10° 332° (NNW) 2,137 4.8 -29.6°
Maximum altitude 19:50:25 13° 359° (N) 2,029 4.3 -30.0°
Enters shadow 19:50:56 13° 6° (N) 2,059 4.3 -30.1°
